H1 CPF 1 NER 2021 3 3 9 5621 glonass138 H2 1805301 9138 43508 2021 3 3 0 0 0 2021 3 6 23 45 0 900 1 1 0 0 0 H9 10 0 59276 0.00000 0 -11626454.636 -6263351.891 -21806515.259 10 0 59276 900.00000 0 -9104141.328 -7353009.838 -22650367.901 10 0 59276 1800.00000 0 -6601298.383 -8661374.084 -23053675.208 10 0 59276 2700.00000 0 -4182922.004 -10161794.069 -23008678.608 10 0 59276 3600.00000 0 -1908478.320 -11816538.750 -22516344.315 10 0 59276 4500.00000 0 170360.191 -13578246.922 -21586337.438 10 0 59276 5400.00000 0 2011640.155 -15391797.921 -20236826.947 10 0 59276 6300.00000 0 3584635.577 -17196524.630 -18494125.692 10 0 59276 7200.00000 0 4870877.533 -18928676.144 -16392172.856 10 0 59276 8100.00000 0 5864664.085 -20524027.112 -13971869.126 10 0 59276 9000.00000 0 6573031.039 -21920524.645 -11280277.657 10 0 59276 9900.00000 0 7015186.633 -23060862.009 -8369706.538 10 0 59276 10800.00000 0 7221435.786 -23894871.524 -5296690.687 10 0 59276 11700.00000 0 7231640.808 -24381636.554 -2120892.997 10 0 59276 12600.00000 0 7093284.795 -24491234.308 1096053.675 10 0 59276 13500.00000 0 6859220.520 -24206036.653 4291741.185 10 0 59276 14400.00000 0 6585200.621 -23521514.646 7404194.197 10 0 59276 15300.00000 0 6327293.879 -22446513.290 10373068.221 10 0 59276 16200.00000 0 6139296.925 -21002985.148 13140814.578 10 0 59276 17100.00000 0 6070250.722 -19225193.913 15653790.027 10 0 59276 18000.00000 0 6162166.505 -17158421.101 17863289.985 10 0 59276 18900.00000 0 6448056.973 -14857229.478 19726485.961 10 0 59276 19800.00000 0 6950355.664 -12383354.972 21207249.797 10 0 59276 20700.00000 0 7679791.174 -9803314.138 22276849.402 10 0 59276 21600.00000 0 8634763.988 -7185825.672 22914503.236 10 0 59276 22500.00000 0 9801252.840 -4599151.972 23107783.267 10 0 59276 23400.00000 0 11153255.596 -2108470.073 22852858.841 10 0 59276 24300.00000 0 12653747.539 226620.089 22154576.698 10 0 59276 25200.00000 0 14256118.458 2354347.694 21026375.202 10 0 59276 26100.00000 0 15906029.965 4232690.602 19490033.747 10 0 59276 27000.00000 0 17543616.796 5830883.403 17575261.275 10 0 59276 27900.00000 0 19105941.229 7130451.717 15319130.769 10 0 59276 28800.00000 0 20529598.678 8125729.897 12765369.590 10 0 59276 29700.00000 0 21753365.736 8823840.845 9963518.383 10 0 59276 30600.00000 0 22720779.570 9244139.031 6967974.032 10 0 59276 31500.00000 0 23382539.866 9417140.352 3836934.796 10 0 59276 32400.00000 0 23698631.489 9382984.320 631267.957 10 0 59276 33300.00000 0 23640077.481 9189493.966 -2586677.819 10 0 59276 34200.00000 0 23190247.248 8889916.144 -5754291.639 10 0 59276 35100.00000 0 22345663.632 8540438.727 -8809926.568 10 0 59276 36000.00000 0 21116273.633 8197590.900 -11694107.983 10 0 59276 36900.00000 0 19525170.454 7915637.748 -14350699.492 10 0 59276 37800.00000 0 17607777.824 7744080.713 -16728002.822 10 0 59276 38700.00000 0 15410530.414 7725370.827 -18779769.526 10 0 59276 39600.00000 0 12989105.554 7892932.485 -20466104.266 10 0 59276 40500.00000 0 10406280.324 8269582.090 -21754241.927 10 0 59276 41400.00000 0 7729503.706 8866409.002 -22619183.524 10 0 59276 42300.00000 0 5028285.371 9682166.364 -23044178.810 10 0 59276 43200.00000 0 2371509.970 10703197.758 -23021046.717 10 0 59276 44100.00000 0 -175211.396 11903902.897 -22550327.975 10 0 59276 45000.00000 0 -2552042.639 13247722.751 -21641267.521 10 0 59276 45900.00000 0 -4707173.751 14688602.725 -20311627.617 10 0 59276 46800.00000 0 -6598728.872 16172872.399 -18587335.741 10 0 59276 47700.00000 0 -8196253.178 17641462.866 -16501974.466 10 0 59276 48600.00000 0 -9481718.236 19032368.579 -14096123.506 10 0 59276 49500.00000 0 -10450005.705 20283250.426 -11416566.841 10 0 59276 50400.00000 0 -11108850.945 21334070.733 -8515380.525 10 0 59276 51300.00000 0 -11478250.889 22129649.677 -5448918.986 10 0 59276 52200.00000 0 -11589362.791 22622035.811 -2276719.592 10 0 59276 53100.00000 0 -11482941.739 22772591.249 939653.050 10 0 59276 54000.00000 0 -11207384.097 22553704.073 4137800.533 10 0 59276 54900.00000 0 -10816460.350 21950056.121 7255698.671 10 0 59276 55800.00000 0 -10366833.691 20959393.031 10232896.573 10 0 59276 56700.00000 0 -9915469.426 19592764.198 13011683.733 10 0 59276 57600.00000 0 -9517044.616 17874222.428 15538202.833 10 0 59276 58500.00000 0 -9221467.093 15839995.503 17763487.114 10 0 59276 59400.00000 0 -9071608.188 13537163.781 19644402.851 10 0 59276 60300.00000 0 -9101344.451 11021898.159 21144479.442 10 0 59276 61200.00000 0 -9333990.563 8357330.930 22234611.670 10 0 59276 62100.00000 0 -9781189.387 5611146.935 22893621.280 10 0 59276 63000.00000 0 -10442306.071 2852993.787 23108667.469 10 0 59276 63900.00000 0 -11304352.239 151817.484 22875498.603 10 0 59276 64800.00000 0 -12342444.344 -2426767.397 22198540.246 10 0 59276 65700.00000 0 -13520778.176 -4822964.980 21090817.427 10 0 59276 66600.00000 0 -14794079.933 -6985040.576 19573711.993 10 0 59276 67500.00000 0 -16109474.413 -8871226.040 17676558.803 10 0 59276 68400.00000 0 -17408693.192 -10451209.388 15436087.522 10 0 59276 69300.00000 0 -18630531.106 -11707146.934 12895719.703 10 0 59276 70200.00000 0 -19713448.497 -12634156.013 10104733.783 10 0 59276 71100.00000 0 -20598210.027 -13240267.877 7117313.314 10 0 59276 72000.00000 0 -21230448.750 -13545842.900 3991496.438 10 0 59276 72900.00000 0 -21563046.766 -13582472.987 788046.845 10 0 59276 73800.00000 0 -21558231.088 -13391417.829 -2430731.676 10 0 59276 74700.00000 0 -21189295.040 -13021641.580 -5602213.395 10 0 59276 75600.00000 0 -20441871.198 -12527533.681 -8664677.019 10 0 59276 76500.00000 0 -19314700.781 -11966411.192 -11558515.471 10 0 59276 77400.00000 0 -17819865.824 -11395909.349 -14227404.398 10 0 59276 78300.00000 0 -15982473.278 -10871371.882 -16619405.772 10 0 59276 79200.00000 0 -13839803.513 -10443352.563 -18687984.351 10 0 59276 80100.00000 0 -11439958.430 -10155334.535 -20392916.653 10 0 59276 81000.00000 0 -8840065.550 -10041764.556 -21701074.570 10 0 59276 81900.00000 0 -6104112.991 -10126485.615 -22587068.460 10 0 59276 82800.00000 0 -3300505.778 -10421634.316 -23033737.478 10 0 59276 83700.00000 0 -499445.287 -10927049.541 -23032478.115 10 0 59276 84600.00000 0 2229759.272 -11630217.152 -22583405.126 10 0 59276 85500.00000 0 4821335.668 -12506752.806 -21695342.288 10 0 59277 0.00000 0 7215540.429 -13521402.231 -20385643.787 10 0 59277 900.00000 0 9360894.704 -14629516.737 -18679849.888 10 0 59277 1800.00000 0 11216072.611 -15778941.207 -16611184.536 10 0 59277 2700.00000 0 12751363.861 -16912235.464 -14219904.140 10 0 59277 3600.00000 0 13949652.646 -17969135.018 -11552510.954 10 0 59277 4500.00000 0 14806872.428 -18889147.704 -8660846.245 10 0 59277 5400.00000 0 15331920.037 -19614176.887 -5601081.056 10 0 59277 6300.00000 0 15546034.319 -20091060.815 -2432624.221 10 0 59277 7200.00000 0 15481667.036 -20273921.274 783030.938 10 0 59277 8100.00000 0 15180895.039 -20126222.749 3983498.763 10 0 59277 9000.00000 0 14693441.671 -19622455.449 7106709.115 10 0 59277 9900.00000 0 14074391.665 -18749371.439 10092107.414 10 0 59277 10800.00000 0 13381696.349 -17506721.788 12881823.791 10 0 59277 11700.00000 0 12673574.529 -15907463.538 15421789.024 10 0 59277 12600.00000 0 12005918.508 -13977427.382 17662776.014 10 0 59277 13500.00000 0 11429814.190 -11754459.284 19561347.288 10 0 59277 14400.00000 0 10989279.267 -9287070.986 21080690.899 10 0 59277 15300.00000 0 10719314.174 -6632654.595 22191329.214 10 0 59277 16200.00000 0 10644347.419 -3855334.289 22871687.576 10 0 59277 17100.00000 0 10777140.423 -1023542.967 23108512.345 10 0 59277 18000.00000 0 11118197.973 1792576.911 22897130.463 10 0 59277 18900.00000 0 11655709.438 4523841.910 22241545.531 10 0 59277 19800.00000 0 12366023.911 7104656.318 21154368.156 10 0 59277 20700.00000 0 13214640.290 9475492.893 19656581.273 10 0 59277 21600.00000 0 14157671.787 11585123.672 17777144.075 10 0 59277 22500.00000 0 15143724.445 13392508.733 15552441.122 10 0 59277 23400.00000 0 16116111.667 14868264.651 13025586.218 10 0 59277 24300.00000 0 17015312.257 15995651.659 10245593.506 10 0 59277 25200.00000 0 17781568.839 16771038.362 7266430.993 10 0 59277 26100.00000 0 18357517.021 17203824.552 4145974.404 10 0 59277 27000.00000 0 18690733.895 17315825.532 944881.484 10 0 59277 27900.00000 0 18736097.377 17140144.051 -2274591.224 10 0 59277 28800.00000 0 18457855.551 16719577.809 -5449805.459 10 0 59277 29700.00000 0 17831317.192 16104630.335 -8518967.773 10 0 59277 30600.00000 0 16844090.564 15351210.063 -11422340.665 10 0 59277 31500.00000 0 15496816.806 14518115.758 -14103413.650 10 0 59277 32400.00000 0 13803365.623 13664415.630 -16510010.553 10 0 59277 33300.00000 0 11790483.914 12846831.855 -18595310.747 10 0 59277 34200.00000 0 9496911.272 12117241.898 -20318763.828 10 0 59277 35100.00000 0 6971998.780 11520402.786 -21646879.774 10 0 59277 36000.00000 0 4273888.498 11091994.791 -22553879.241 10 0 59277 36900.00000 0 1467329.484 10857067.128 -23022191.609 10 0 59277 37800.00000 0 -1378778.754 10828951.011 -23042791.589 10 0 59277 38700.00000 0 -4194013.279 11008685.504 -22615368.408 10 0 59277 39600.00000 0 -6909116.112 11384979.749 -21748324.862 10 0 59277 40500.00000 0 -9458632.649 11934712.543 -20458606.838 10 0 59277 41400.00000 0 -11783391.076 12623947.580 -18771367.039 10 0 59277 42300.00000 0 -13832720.435 13409420.943 -16719469.854 10 0 59277 43200.00000 0 -15566316.190 14240437.724 -14342847.245 10 0 59277 44100.00000 0 -16955676.863 15061097.369 -11687718.309 10 0 59277 45000.00000 0 -17985053.250 15812753.707 -8805687.892 10 0 59277 45900.00000 0 -18651872.194 16436605.681 -5752741.840 10 0 59277 46800.00000 0 -18966618.805 16876309.462 -2588158.510 10 0 59277 47700.00000 0 -18952183.672 17080501.682 626642.126 10 0 59277 48600.00000 0 -18642703.945 17005127.406 3829289.342 10 0 59277 49500.00000 0 -18081948.270 16615474.651 6957669.353 10 0 59277 50400.00000 0 -17321314.489 15887829.716 9951126.325 10 0 59277 51300.00000 0 -16417525.070 14810683.487 12751633.568 10 0 59277 52200.00000 0 -15430117.582 13385437.700 15304912.574 10 0 59277 53100.00000 0 -14418835.851 11626581.073 17561478.543 10 0 59277 54000.00000 0 -13441031.284 9561327.208 19477592.842 10 0 59277 54900.00000 0 -12549183.116 7228728.420 21016104.644 10 0 59277 55800.00000 0 -11788641.191 4678301.362 22147166.157 10 0 59277 56700.00000 0 -11195685.434 1968220.295 22848808.301 10 0 59277 57600.00000 0 -10795982.943 -836848.413 23107366.209 10 0 59277 58500.00000 0 -10603507.094 -3668182.108 22917746.599 10 0 59277 59400.00000 0 -10619963.923 -6455608.504 22283531.832 10 0 59277 60300.00000 0 -10834750.041 -9130176.526 21216918.310 10 0 59277 61200.00000 0 -11225444.336 -11626781.687 19738489.746 10 0 59277 62100.00000 0 -11758813.474 -13886638.080 17876828.828 10 0 59277 63000.00000 0 -12392289.748 -15859495.011 15667973.665 10 0 59277 63900.00000 0 -13075859.886 -17505506.337 13154728.505 10 0 59277 64800.00000 0 -13754285.905 -18796674.874 10385840.997 10 0 59277 65700.00000 0 -14369564.803 -19717811.489 7415061.083 10 0 59277 66600.00000 0 -14863523.295 -20266968.618 4300099.299 10 0 59277 67500.00000 0 -15180437.660 -20455329.951 1101504.492 10 0 59277 68400.00000 0 -15269567.196 -20306560.898 -2118517.109 10 0 59277 69300.00000 0 -15087493.067 -19855647.328 -5297317.877 10 0 59277 70200.00000 0 -14600162.276 -19147271.910 -8373035.405 10 0 59277 71100.00000 0 -13784548.813 -18233797.105 -11285804.970 10 0 59277 72000.00000 0 -12629860.251 -17172940.737 -13978933.097 10 0 59277 72900.00000 0 -11138237.401 -16025243.161 -16400008.483 10 0 59277 73800.00000 0 -9324916.124 -14851433.810 -18501927.902 10 0 59277 74700.00000 0 -7217843.448 -13709809.127 -20243816.494 10 0 59277 75600.00000 0 -4856763.149 -12653733.058 -21591824.361 10 0 59277 76500.00000 0 -2291808.428 -11729365.847 -22519783.994 10 0 59277 77400.00000 0 418339.882 -10973716.876 -23009715.991 10 0 59277 78300.00000 0 3208653.088 -10413103.265 -23052173.717 10 0 59277 79200.00000 0 6010220.967 -10062078.535 -22646420.781 10 0 59277 80100.00000 0 8752882.218 -9922875.668 -21800438.428 10 0 59277 81000.00000 0 11367909.944 -9985387.009 -20530763.273 10 0 59277 81900.00000 0 13790641.019 -10227680.862 -18862158.997 10 0 59277 82800.00000 0 15962940.489 -10617032.024 -16827128.718 10 0 59277 83700.00000 0 17835399.315 -11111421.923 -14465277.831 10 0 59277 84600.00000 0 19369174.984 -11661444.302 -11822539.824 10 0 59277 85500.00000 0 20537399.286 -12212535.464 -8950280.330 10 0 59278 0.00000 0 21326095.940 -12707434.473 -5904296.985 10 0 59278 900.00000 0 21734570.883 -13088768.917 -2743734.225 10 0 59278 1800.00000 0 21775260.891 -13301657.518 470064.713 10 0 59278 2700.00000 0 21473047.208 -13296218.307 3674747.516 10 0 59278 3600.00000 0 20864065.455 -13029877.824 6808160.144 10 0 59278 4500.00000 0 19994061.928 -12469382.829 9809548.680 10 0 59278 5400.00000 0 18916366.537 -11592430.048 12620732.498 10 0 59278 6300.00000 0 17689567.877 -10388844.917 15187226.302 10 0 59278 7200.00000 0 16374988.270 -8861259.393 17459289.684 10 0 59278 8100.00000 0 15034064.612 -7025259.695 19392884.499 10 0 59278 9000.00000 0 13725744.480 -4908996.824 20950522.249 10 0 59278 9900.00000 0 12504006.108 -2552275.022 22101985.741 10 0 59278 10800.00000 0 11415605.381 -5154.744 22824911.779 10 0 59278 11700.00000 0 10498143.531 2673873.302 23105224.144 10 0 59278 12600.00000 0 9778535.771 5420068.733 22937408.765 10 0 59278 13500.00000 0 9271944.559 8164887.839 22324625.789 10 0 59278 14400.00000 0 8981221.901 10838595.762 21278656.038 10 0 59278 15300.00000 0 8896884.099 13372937.400 19819682.290 10 0 59278 16200.00000 0 8997620.243 15703757.293 17975908.691 10 0 59278 17100.00000 0 9251313.487 17773460.440 15783024.629 10 0 59278 18000.00000 0 9616532.686 19533212.028 13283522.310 10 0 59278 18900.00000 0 10044432.020 20944784.593 10525880.246 10 0 59278 19800.00000 0 10480978.821 21981975.385 7563627.562 10 0 59278 20700.00000 0 10869415.618 22631534.335 4454306.799 10 0 59278 21600.00000 0 11152852.070 22893563.423 1258355.093 10 0 59278 22500.00000 0 11276876.513 22781370.412 -1962074.383 10 0 59278 23400.00000 0 11192075.634 22320782.918 -5144327.225 10 0 59278 24300.00000 0 10856354.378 21548951.813 -8226474.453 10 0 59278 25200.00000 0 10236956.393 20512694.629 -11148526.227 10 0 59278 26100.00000 0 9312098.042 19266449.384 -13853607.877 10 0 59278 27000.00000 0 8072145.357 17869925.752 -16289074.444 10 0 59278 27900.00000 0 6520282.764 16385553.409 -18407541.274 10 0 59278 28800.00000 0 4672644.155 14875835.802 -20167809.959 10 0 59278 29700.00000 0 2557899.657 13400721.455 -21535671.402 10 0 59278 30600.00000 0 216314.533 12015103.768 -22484570.403 10 0 59278 31500.00000 0 -2301680.976 10766554.610 -22996119.055 10 0 59278 32400.00000 0 -4937351.644 9693386.681 -23060449.448 10 0 59278 33300.00000 0 -7625869.829 8823125.435 -22676399.388 10 0 59278 34200.00000 0 -10298788.672 8171453.915 -21851528.085 10 0 59278 35100.00000 0 -12886673.259 7741673.613 -20601962.091 10 0 59278 36000.00000 0 -15321780.625 7524702.763 -18952074.917 10 0 59278 36900.00000 0 -17540677.437 7499610.785 -16934006.971 10 0 59278 37800.00000 0 -19486687.001 7634665.046 -14587035.387 10 0 59278 38700.00000 0 -21112064.393 7888844.659 -11956806.168 10 0 59278 39600.00000 0 -22379809.815 8213756.444 -9094443.745 10 0 59278 40500.00000 0 -23265045.533 8555871.370 -6055555.373 10 0 59278 41400.00000 0 -23755899.970 8858986.353 -2899149.770 10 0 59278 42300.00000 0 -23853863.073 9066807.010 313508.761 10 0 59278 43200.00000 0 -23573599.311 9125541.874 3520088.409 10 0 59278 44100.00000 0 -22942227.216 8986398.299 6658397.001 10 0 59278 45000.00000 0 -21998096.666 8607874.529 9667584.721 10 0 59278 45900.00000 0 -20789115.985 7957751.039 12489319.222 10 0 59278 46800.00000 0 -19370699.534 7014697.032 15068910.660 10 0 59278 47700.00000 0 -17803422.095 5769424.102 17356365.215 10 0 59278 48600.00000 0 -16150478.264 4225338.032 19307347.326 10 0 59278 49500.00000 0 -14475052.876 2398660.545 20884032.731 10 0 59278 50400.00000 0 -12837711.914 318014.866 22055836.500 10 0 59278 51300.00000 0 -11293922.244 -1976508.962 22800002.667 10 0 59278 52200.00000 0 -9891802.959 -4434771.654 23102044.652 10 0 59278 53100.00000 0 -8670201.467 -6998427.740 22956028.197 10 0 59278 54000.00000 0 -7657173.973 -9603119.287 22364691.428 10 0 59278 54900.00000 0 -6868933.248 -12180930.828 21339399.382 10 0 59278 55800.00000 0 -6309307.373 -14663004.964 19899933.271 10 0 59278 56700.00000 0 -5969731.967 -16982211.234 18074117.693 10 0 59278 57600.00000 0 -5829776.225 -19075758.214 15897291.910 10 0 59278 58500.00000 0 -5858180.901 -20887640.575 13411634.352 10 0 59278 59400.00000 0 -6014364.766 -22370819.282 10665352.365 10 0 59278 60300.00000 0 -6250336.201 -23489043.770 7711751.999 10 0 59278 61200.00000 0 -6512929.282 -24218239.406 4608205.360 10 0 59278 62100.00000 0 -6746269.607 -24547401.595 1415035.316 10 0 59278 63000.00000 0 -6894364.955 -24478958.446 -1805660.672 10 0 59278 63900.00000 0 -6903710.313 -24028586.266 -4991224.139 10 0 59278 64800.00000 0 -6725795.708 -23224485.370 -8079662.298 10 0 59278 65700.00000 0 -6319409.315 -22106146.661 -11010862.982 10 0 59278 66600.00000 0 -5652636.805 -20722661.139 -13727773.104 10 0 59278 67500.00000 0 -4704470.835 -19130643.985 -16177516.761 10 0 59278 68400.00000 0 -3465961.149 -17391861.209 -18312430.423 10 0 59278 69300.00000 0 -1940855.419 -15570659.405 -20090994.440 10 0 59278 70200.00000 0 -145702.649 -13731307.275 -21478642.489 10 0 59278 71100.00000 0 1890586.272 -11935361.008 -22448433.239 10 0 59278 72000.00000 0 4127703.159 -10239164.306 -22981571.381 10 0 59278 72900.00000 0 6515392.517 -8691587.738 -23067768.355 10 0 59278 73800.00000 0 8995326.830 -7332101.641 -22705436.323 10 0 59278 74700.00000 0 11503329.114 -6189262.503 -21901712.190 10 0 59278 75600.00000 0 13971850.433 -5279675.071 -20672311.757 10 0 59278 76500.00000 0 16332599.382 -4607472.233 -19041217.306 10 0 59278 77400.00000 0 18519214.254 -4164333.009 -17040205.085 10 0 59278 78300.00000 0 20469866.934 -3930036.200 -14708222.126 10 0 59278 79200.00000 0 22129690.453 -3873524.876 -12090624.710 10 0 59278 80100.00000 0 23452929.450 -3954435.434 -9238293.439 10 0 59278 81000.00000 0 24404724.480 -4125025.529 -6206642.256 10 0 59278 81900.00000 0 24962456.411 -4332418.482 -3054540.746 10 0 59278 82800.00000 0 25116595.484 -4521068.634 156829.145 10 0 59278 83700.00000 0 24871020.477 -4635342.906 3365159.666 10 0 59278 84600.00000 0 24242795.447 -4622109.091 6508224.021 10 0 59278 85500.00000 0 23261414.257 -4433221.334 9525079.821 10 0 59279 0.00000 0 21967545.237 -4027797.716 12357245.987 10 0 59279 900.00000 0 20411328.867 -3374193.278 14949830.923 10 0 59279 1800.00000 0 18650300.390 -2451586.406 17252589.640 10 0 59279 2700.00000 0 16747023.770 -1251109.262 19220891.009 10 0 59279 3600.00000 0 14766535.833 223523.615 20816576.442 10 0 59279 4500.00000 0 12773706.750 1955917.263 22008694.258 10 0 59279 5400.00000 0 10830626.230 3917433.445 22774096.283 10 0 59279 6300.00000 0 8994123.474 6068146.419 23097885.681 10 0 59279 7200.00000 0 7313523.423 8358278.983 22973707.660 10 0 59279 8100.00000 0 5828731.867 10730060.799 22403877.517 10 0 59279 9000.00000 0 4568728.434 13119933.409 21399343.229 10 0 59279 9900.00000 0 3550529.783 15461011.763 19979482.742 10 0 59279 10800.00000 0 2778665.790 17685701.302 18171739.005 10 0 59279 11700.00000 0 2245190.417 19728362.680 16011098.724 10 0 59279 12600.00000 0 1930226.699 21527913.721 13539423.848 10 0 59279 13500.00000 0 1803022.925 23030260.329 10804647.642 10 0 59279 14400.00000 0 1823475.544 24190454.646 7859850.022 10 0 59279 15300.00000 0 1944054.527 24974489.625 4762229.520 10 0 59279 16200.00000 0 2112049.563 25360654.145 1571991.587 10 0 59279 17100.00000 0 2272041.604 25340390.987 -1648825.111 10 0 59279 18000.00000 0 2368494.378 24918620.811 -4837560.992 10 0 59279 18900.00000 0 2348355.042 24113517.910 -7932162.171 10 0 59279 19800.00000 0 2163552.528 22955746.728 -10872396.570 10 0 59279 20700.00000 0 1773286.357 21487191.142 -13601034.750 10 0 59279 21600.00000 0 1146007.565 19759230.101 -16064971.551 10 0 59279 22500.00000 0 261006.460 17830632.441 -18216265.895 10 0 59279 23400.00000 0 -890461.164 15765159.888 -20013077.868 10 0 59279 24300.00000 0 -2304558.088 13628979.357 -21420484.584 10 0 59279 25200.00000 0 -3964786.977 11487993.505 -22411158.958 10 0 59279 26100.00000 0 -5842453.068 9405201.653 -22965898.363 10 0 59279 27000.00000 0 -7897649.446 7438201.520 -23073993.380 10 0 59279 27900.00000 0 -10080724.223 5636935.819 -22733430.003 10 0 59279 28800.00000 0 -12334168.513 4041777.301 -21950921.943 10 0 59279 29700.00000 0 -14594846.653 2682031.152 -20741772.999 10 0 59279 30600.00000 0 -16796475.801 1574915.964 -19129572.607 10 0 59279 31500.00000 0 -18872251.589 725064.365 -17145730.906 10 0 59279 32400.00000 0 -20757510.505 124562.393 -14828862.627 10 0 59279 33300.00000 0 -22392318.189 -246475.837 -12224031.943 10 0 59279 34200.00000 0 -23723875.811 -418824.047 -9381873.149 10 0 59279 35100.00000 0 -24708644.440 -432597.539 -6357604.379 10 0 59279 36000.00000 0 -25314099.060 -335311.291 -3209953.601 10 0 59279 36900.00000 0 -25520039.390 -179625.441 -17.973 10 0 59279 37800.00000 0 -25319403.249 -20874.231 3209921.193 10 0 59279 38700.00000 0 -24718549.055 85516.625 6357604.804 10 0 59279 39600.00000 0 -23736996.197 86614.649 9382000.170 10 0 59279 40500.00000 0 -22406634.686 -65541.999 12224479.798 10 0 59279 41400.00000 0 -20770437.497 -411679.127 14829952.223 10 0 59279 42300.00000 0 -18880729.662 -983328.779 17147923.307 10 0 59279 43200.00000 0 -16797086.347 -1801261.798 19133468.087 10 0 59279 44100.00000 0 -14583947.317 -2874377.032 20748095.064 10 0 59279 45000.00000 0 -12308046.751 -4199094.395 21960486.894 10 0 59279 45900.00000 0 -10035764.652 -5759278.146 22747103.897 10 0 59279 46800.00000 0 -7830509.178 -7526694.834 23092639.298 10 0 59279 47700.00000 0 -5750237.807 -9461988.172 22990317.709 10 0 59279 48600.00000 0 -3845219.415 -11516131.831 22442031.166 10 0 59279 49500.00000 0 -2156129.397 -13632301.312 21458309.831 10 0 59279 50400.00000 0 -712556.393 -15748088.492 20058127.315 10 0 59279 51300.00000 0 468017.831 -17797968.067 18268543.565 10 0 59279 52200.00000 0 1380723.255 -19715914.265 16124191.103 10 0 59279 53100.00000 0 2033270.358 -21438059.414 13666613.526 10 0 59279 54000.00000 0 2445384.320 -22905283.705 10943467.933 10 0 59279 54900.00000 0 2647728.608 -24065627.794 8007605.830 10 0 59279 55800.00000 0 2680363.383 -24876426.701 4916049.777 10 0 59279 56700.00000 0 2590804.133 -25306074.750 1728885.314 10 0 59279 57600.00000 0 2431762.996 -25335346.478 -1491910.219 10 0 59279 58500.00000 0 2258669.028 -24958216.940 -4683678.672 10 0 59279 59400.00000 0 2127073.394 -24182145.931 -7784307.598 10 0 59279 60300.00000 0 2090050.526 -23027813.361 -10733447.521 10 0 59279 61200.00000 0 2195706.673 -21528316.390 -13473695.113 10 0 59279 62100.00000 0 2484902.710 -19727861.814 -15951718.324 10 0 59279 63000.00000 0 2989288.989 -17680008.662 -18119300.735 10 0 59279 63900.00000 0 3729736.542 -15445535.053 -19934284.146 10 0 59279 64800.00000 0 4715232.049 -13090019.100 -21361390.780 10 0 59279 65700.00000 0 5942284.135 -10681235.531 -22372909.090 10 0 59279 66600.00000 0 7394866.723 -8286477.259 -22949230.020 10 0 59279 67500.00000 0 9044902.455 -5969913.840 -23079223.748 10 0 59279 68400.00000 0 10853266.334 -3790096.886 -22760450.127 10 0 59279 69300.00000 0 12771267.800 -1797715.986 -21999199.316 10 0 59279 70200.00000 0 14742549.425 -33697.848 -20810362.375 10 0 59279 71100.00000 0 16705322.959 1472273.327 -19217134.807 10 0 59279 72000.00000 0 18594849.280 2702753.921 -17250559.216 10 0 59279 72900.00000 0 20346058.696 3653017.517 -14948916.253 10 0 59279 73800.00000 0 21896202.172 4330992.010 -12356975.846 10 0 59279 74700.00000 0 23187422.680 4756661.714 -9525123.494 10 0 59279 75600.00000 0 24169139.322 4960961.462 -6508378.709 10 0 59279 76500.00000 0 24800144.666 4984210.871 -3365324.765 10 0 59279 77400.00000 0 25050327.743 4874156.149 -156970.776 10 0 59279 78300.00000 0 24901950.909 4683703.196 3054431.716 10 0 59279 79200.00000 0 24350427.421 4468438.518 6206594.606 10 0 59279 80100.00000 0 23404567.530 4284043.229 9238398.038 10 0 59279 81000.00000 0 22086283.063 4183709.619 12091070.934 10 0 59279 81900.00000 0 20429763.043 4215669.536 14709324.653 10 0 59279 82800.00000 0 18480154.835 4420938.849 17042418.107 10 0 59279 83700.00000 0 16291805.728 4831373.063 19045134.370 10 0 59279 84600.00000 0 13926137.854 5468116.096 20678650.549 10 0 59279 85500.00000 0 11449244.413 6340507.662 21911284.773 99